COSMOS 1275 DEB, 17641

Orbit data source: Space-Track

COSMOS 1275 DEB, 17641 is space debris in LEO originally from a launch on Thu, 04 Jun 1981 UTC launched from the Plesetsk Missile And Space Complex (PKMTR). Debris objects in space refer to the collection of defunct objects orbiting the Earth. Examples of debris include non-operational satellites, rocket bodies, and fragments generated from explosions, collisions, or faulty payload assembly.

Loading next visibility...
Identifier
17641, 1981-053LL
Orbit
LEO
Country
Flag of CISCIS
Related business
Manufacturer
Unknown
Mission
Spacecraft
Bus & Motor
Unknown
Mass
Unknown
Launch date (UTC)
1981-06-04 (45 years ago)
Launch vehicle
Unknown
Launch site
Plesetsk Missile And Space Complex (PKMTR)
Object type
Payload
Rocket body
Debris
Shape & HBR
Unknown shape, 0.1 m
Radar Cross Section
Small (<0.1 m²)

Expand to show TLE details & history
Last TLE update: 8 hours ago

TLE from 8 hours ago
0 COSMOS 1275 DEB
1 17641U 81053LL  25355.43661176  .00002871  00000-0  12755-2 0  9990
2 17641  82.7492  54.5662 0051541 202.9782 174.0274 14.22000369 86610
Epoch: 2025-12-21T10:28Z
TLE epoch observation values (Epoch: 2025-12-21T10:28:43.256Z)
Latitude
16.91156°
Longitude
169.34216°
Altitude
857.834 km
Speed
7.406 km/s
True Right ascension
03h 47m 05s
True Declination
16° 49' 03"
Sunlit
Object was in full shadow at epoch
Visualization orbit readout
Latitude
Unknown
Longitude
Unknown
Altitude
Unknown
Speed
Unknown
Apparent Right ascension
Unknown
Apparent Declination
Unknown
Sunlit
N/A
Visualization observer readout
Local Sidereal Time
17:55:03
Azimuth
Unknown
Elevation
Unknown
Doppler factor
Unknown
Orbital elements
Apogee altitude
852.765 km
Perigee altitude
778.61 km
Semi-major axis
7,193.824 km
Eccentricity
0.00515
Inclination
82.7492°
RAAN
54.5662°
Arg. of periapsis
202.9782°
True anomaly
174.08846°
Mean anomaly
174.0274°
Eccentric anomaly
174.05797°
Mean motion
3.55716 °/min
Orbital period
101.2 mins
BSTAR
0.0012755
Loading maneuver chart data...
Computing Atmospheric mass density...
Loading historical data...
Loading historical data...
Loading historical data...
Loading historical data...
Loading historical data...
Loading historical data...
Loading historical data...

Documentation

Showing up to 5 results
|